EN

Hourly Weather Odienne

Today, 26 January, Tuesday

Time Temperature Precipitation Wind Pressure Humidity
00:00 +20°C° 0 mm 0 mps 722 mmHg 21%
01:00 +19°C° 0 mm 0 mps 722 mmHg 22%
02:00 +19°C° 0 mm 0 mps 722 mmHg 23%
03:00 +18°C° 0 mm 0 mps 722 mmHg 23%
04:00 +20°C° 0 mm 1 mps 722 mmHg 23%
05:00 +20°C° 0 mm 1 mps 722 mmHg 23%
06:00 +22°C° 0 mm 1 mps 723 mmHg 21%
07:00 +25°C° 0 mm 1 mps 723 mmHg 18%
08:00 +28°C° 0 mm 1 mps 724 mmHg 16%
09:00 +31°C° 0 mm 1 mps 724 mmHg 13%
10:00 +35°C° 0 mm 2 mps 724 mmHg 11%
11:00 +38°C° 0 mm 3 mps 724 mmHg 8%
12:00 +39°C° 0 mm 3 mps 723 mmHg 8%
13:00 +39°C° 0 mm 3 mps 722 mmHg 8%
14:00 +40°C° 0 mm 3 mps 721 mmHg 8%
15:00 +39°C° 0 mm 2 mps 721 mmHg 9%
16:00 +37°C° 0 mm 2 mps 721 mmHg 11%
17:00 +35°C° 0 mm 1 mps 722 mmHg 12%
18:00 +32°C° 0 mm 1 mps 722 mmHg 14%
19:00 +29°C° 0 mm 1 mps 722 mmHg 15%
20:00 +27°C° 0 mm 1 mps 722 mmHg 17%
21:00 +26°C° 0 mm 1 mps 722 mmHg 18%
22:00 +23°C° 0 mm 0 mps 722 mmHg 19%
23:00 +22°C° 0 mm 0 mps 722 mmHg 20%

Tomorrow, 27 January, Wednesday

Time Temperature Precipitation Wind Pressure Humidity
00:00 +21°C° 0 mm 0 mps 722 mmHg 21%
01:00 +20°C° 0 mm 0 mps 721 mmHg 22%
02:00 +20°C° 0 mm 0 mps 721 mmHg 23%
03:00 +19°C° 0 mm 0 mps 721 mmHg 23%
04:00 +21°C° 0 mm 1 mps 722 mmHg 23%
05:00 +21°C° 0 mm 1 mps 722 mmHg 23%
06:00 +23°C° 0 mm 1 mps 723 mmHg 21%
07:00 +25°C° 0 mm 1 mps 723 mmHg 18%
08:00 +28°C° 0 mm 1 mps 724 mmHg 15%
09:00 +30°C° 0 mm 2 mps 724 mmHg 13%
10:00 +34°C° 0 mm 3 mps 723 mmHg 11%
11:00 +37°C° 0 mm 3 mps 723 mmHg 8%
12:00 +38°C° 0 mm 3 mps 722 mmHg 8%
13:00 +39°C° 0 mm 3 mps 721 mmHg 8%
14:00 +40°C° 0 mm 3 mps 721 mmHg 8%
15:00 +38°C° 0 mm 2 mps 721 mmHg 9%
16:00 +37°C° 0 mm 2 mps 720 mmHg 10%
17:00 +35°C° 0 mm 1 mps 720 mmHg 11%
18:00 +32°C° 0 mm 1 mps 721 mmHg 12%
19:00 +30°C° 0 mm 1 mps 721 mmHg 14%
20:00 +27°C° 0 mm 1 mps 722 mmHg 15%
21:00 +26°C° 0 mm 1 mps 721 mmHg 16%
22:00 +25°C° 0 mm 1 mps 721 mmHg 17%
23:00 +22°C° 0 mm 0 mps 721 mmHg 17%

Day after tomorrow, 28 January, Thursday

Time Temperature Precipitation Wind Pressure Humidity
00:00 +21°C° 0 mm 0 mps 721 mmHg 19%
01:00 +20°C° 0 mm 0 mps 721 mmHg 20%
02:00 +19°C° 0 mm 0 mps 720 mmHg 21%
03:00 +19°C° 0 mm 0 mps 721 mmHg 22%
04:00 +18°C° 0 mm 0 mps 721 mmHg 22%
05:00 +18°C° 0 mm 0 mps 721 mmHg 23%
06:00 +21°C° 0 mm 0 mps 722 mmHg 20%
07:00 +24°C° 0 mm 0 mps 723 mmHg 18%
08:00 +29°C° 0 mm 1 mps 724 mmHg 15%
09:00 +31°C° 0 mm 2 mps 723 mmHg 12%
10:00 +35°C° 0 mm 2 mps 723 mmHg 9%
11:00 +38°C° 0 mm 3 mps 723 mmHg 6%
12:00 +38°C° 0 mm 3 mps 722 mmHg 6%
13:00 +39°C° 0 mm 3 mps 722 mmHg 6%
14:00 +40°C° 0 mm 3 mps 721 mmHg 6%
15:00 +38°C° 0 mm 2 mps 721 mmHg 7%
16:00 +37°C° 0 mm 2 mps 721 mmHg 8%
17:00 +35°C° 0 mm 1 mps 720 mmHg 9%
18:00 +32°C° 0 mm 1 mps 721 mmHg 9%
19:00 +29°C° 0 mm 1 mps 721 mmHg 10%
20:00 +27°C° 0 mm 1 mps 722 mmHg 11%
21:00 +26°C° 0 mm 1 mps 722 mmHg 12%
22:00 +25°C° 0 mm 1 mps 722 mmHg 12%
23:00 +22°C° 0 mm 0 mps 722 mmHg 13%

29 January, Friday

Time Temperature Precipitation Wind Pressure Humidity
00:00 +22°C° 0 mm 0 mps 721 mmHg 13%
01:00 +21°C° 0 mm 0 mps 721 mmHg 14%
02:00 +20°C° 0 mm 0 mps 721 mmHg 15%
03:00 +19°C° 0 mm 0 mps 721 mmHg 16%
04:00 +18°C° 0 mm 0 mps 721 mmHg 17%
05:00 +18°C° 0 mm 0 mps 721 mmHg 18%
06:00 +21°C° 0 mm 0 mps 722 mmHg 16%
07:00 +24°C° 0 mm 0 mps 723 mmHg 15%
08:00 +27°C° 0 mm 0 mps 724 mmHg 14%
09:00 +31°C° 0 mm 0 mps 724 mmHg 12%
10:00 +35°C° 0 mm 0 mps 724 mmHg 11%
11:00 +39°C° 0 mm 0 mps 724 mmHg 10%
12:00 +42°C° 0 mm 1 mps 723 mmHg 10%
13:00 +42°C° 0 mm 1 mps 722 mmHg 9%
14:00 +41°C° 0 mm 1 mps 721 mmHg 9%
15:00 +40°C° 0 mm 1 mps 721 mmHg 11%
16:00 +37°C° 0 mm 1 mps 721 mmHg 13%
17:00 +36°C° 0 mm 1 mps 721 mmHg 15%
18:00 +33°C° 0 mm 1 mps 721 mmHg 17%
19:00 +30°C° 0 mm 1 mps 722 mmHg 20%
20:00 +28°C° 0 mm 1 mps 722 mmHg 22%
21:00 +27°C° 0 mm 1 mps 722 mmHg 21%
22:00 +26°C° 0 mm 1 mps 722 mmHg 20%
23:00 +26°C° 0 mm 1 mps 722 mmHg 19%

30 January, Saturday

Time Temperature Precipitation Wind Pressure Humidity
00:00 +25°C° 0 mm 1 mps 722 mmHg 22%
01:00 +24°C° 0 mm 1 mps 722 mmHg 24%
02:00 +23°C° 0 mm 1 mps 721 mmHg 27%
03:00 +22°C° 0 mm 1 mps 721 mmHg 28%
04:00 +21°C° 0 mm 1 mps 722 mmHg 30%
05:00 +21°C° 0 mm 1 mps 722 mmHg 32%
06:00 +23°C° 0 mm 1 mps 722 mmHg 28%
07:00 +25°C° 0 mm 1 mps 723 mmHg 23%
08:00 +27°C° 0 mm 2 mps 724 mmHg 19%
09:00 +31°C° 0 mm 2 mps 724 mmHg 16%
10:00 +35°C° 0 mm 2 mps 723 mmHg 14%
11:00 +38°C° 0 mm 2 mps 723 mmHg 12%
12:00 +39°C° 0 mm 2 mps 723 mmHg 11%
13:00 +40°C° 0 mm 2 mps 722 mmHg 11%
14:00 +41°C° 0 mm 2 mps 721 mmHg 11%
15:00 +39°C° 0 mm 2 mps 721 mmHg 13%
16:00 +37°C° 0 mm 1 mps 720 mmHg 15%
17:00 +36°C° 0 mm 1 mps 720 mmHg 16%
18:00 +33°C° 0 mm 1 mps 721 mmHg 19%
19:00 +30°C° 0 mm 1 mps 721 mmHg 21%
20:00 +28°C° 0 mm 1 mps 722 mmHg 23%
21:00 +25°C° 0 mm 0 mps 722 mmHg 23%
22:00 +24°C° 0 mm 0 mps 722 mmHg 22%
23:00 +23°C° 0 mm 0 mps 722 mmHg 22%

31 January, Sunday

Time Temperature Precipitation Wind Pressure Humidity
00:00 +22°C° 0 mm 0 mps 721 mmHg 23%
01:00 +22°C° 0 mm 0 mps 721 mmHg 24%
02:00 +21°C° 0 mm 0 mps 721 mmHg 24%
03:00 +20°C° 0 mm 0 mps 721 mmHg 26%
04:00 +20°C° 0 mm 0 mps 721 mmHg 28%
05:00 +22°C° 0 mm 1 mps 721 mmHg 30%
06:00 +24°C° 0 mm 1 mps 722 mmHg 29%
07:00 +26°C° 0 mm 1 mps 723 mmHg 27%
08:00 +28°C° 0 mm 2 mps 723 mmHg 26%
09:00 +32°C° 0 mm 1 mps 723 mmHg 23%
10:00 +36°C° 0 mm 1 mps 723 mmHg 19%
11:00 +41°C° 0 mm 1 mps 723 mmHg 15%
12:00 +41°C° 0 mm 1 mps 722 mmHg 15%
13:00 +41°C° 0 mm 1 mps 722 mmHg 14%
14:00 +41°C° 0 mm 1 mps 721 mmHg 14%
15:00 +40°C° 0 mm 1 mps 720 mmHg 15%
16:00 +37°C° 0 mm 1 mps 720 mmHg 17%
17:00 +34°C° 0 mm 0 mps 720 mmHg 19%
18:00 +34°C° 0 mm 1 mps 720 mmHg 20%
19:00 +31°C° 0 mm 1 mps 721 mmHg 21%
20:00 +29°C° 0 mm 1 mps 721 mmHg 22%
21:00 +28°C° 0 mm 1 mps 721 mmHg 21%
22:00 +27°C° 0 mm 1 mps 721 mmHg 19%
23:00 +26°C° 0 mm 1 mps 721 mmHg 18%
Show more

We Need Your Consent

Meteoprog and our Service Providers may store and access personal data such as cookies, device identifiers or other similar technologies on your device and process such data to personalise content and ads, as well as provide social media features and to analyse the traffic.

  • Store and/or access information on your device

    Cookies, device identifiers or other information can be stored or accessed on your device for the purposes indicated above.

  • Personalised ads and content, ad and content measurement, audience insights, and products development

    Ads and content can be personalised based on a profile. More data can be added to better personalise ads and content. Ad and content performance can be measured. Insights about the audience who saw the ads and content can be derived. Such data can be used to develop or improve user’s experience, systems and software.

By clicking ‘I Agree’ you will allow the use of indicated cookies, device identifiers, web beacons or other similar technologies. Your settings can be changed in the browser on your device.

For certain purposes, legitimate interests may be relied on, rather than consent. You can read more about this in our Privacy and Cookie Policy.